[[{"header":{"parameterUnit":"m.s-1","parameterCategory":1,"la1":30.2991,"la2":30.254,"lo1":-89.0895,"lo2":-89.0444,"dy":0.0017,"dx":0.0017,"nx":28,"ny":28,"refTime":"2026-01-03T03:00:00:Z","depth":0,"parameterNumber":2,"parameterNumberName":"U-component_of_WINDS"},"data":[0,0,0,0,0,0,0,0,0,0,0,0,0,0,0,0,0,0,0,0,0,0,0,0,0,0,0,0,0,0,0,0,0,0,0,0,0,0,0,0,0,0,0,0,0,0,0,0,0,0,0,0,0,0,0,0,0,0,2.9797,2.9797,0,2.9801,2.9801,2.9801,2.9773,2.9772,2.9771,2.977,2.9776,2.9776,2.9777,0,0,0,0,0,0,0,0,0,0,0,0,0,2.9768,2.9768,2.9797,2.9797,2.9797,2.9801,2.9801,2.9801,2.9773,2.9772,2.9771,2.977,2.9775,2.9776,2.9777,0,0,0,0,0,0,0,0,0,0,0,0,0,2.9777,2.9769,2.9797,2.9783,2.9782,2.9801,2.9801,2.9801,2.9773,2.9772,2.977,2.9769,2.9775,2.9776,2.9778,2.981,0,0,2.9782,2.9782,0,0,0,0,0,0,0,0,2.9777,2.9778,2.9785,2.9784,2.9783,2.9785,2.9793,2.9804,2.9773,2.9776,2.977,2.9769,2.978,2.9781,2.9784,2.981,2.981,2.9782,2.9783,2.9783,2.9784,0,0,0,0,0,0,0,2.9776,2.9778,2.9798,2.9785,2.9784,2.9778,2.9778,2.9795,2.9785,2.9776,2.9774,2.9775,2.9779,2.9783,2.9784,2.9811,2.9782,2.9783,2.9784,2.9784,2.9868,2.9869,0,0,0,0,0,0,2.9777,2.9777,2.9798,2.9798,2.9777,2.978,2.9779,2.9785,2.9785,2.9783,2.9776,2.9773,2.9781,2.9782,2.9784,2.9825,2.9783,2.9784,2.9785,2.9867,2.9868,2.987,0,0,0,0,0,0,2.9776,2.9779,2.9798,2.9787,2.9789,2.9781,2.9788,2.9786,2.979,2.9784,2.9783,2.9781,2.978,2.9782,2.9805,2.9824,2.9785,2.9786,2.9865,2.9867,2.9869,2.9904,0,0,0,0,0,0,2.9776,2.9779,2.979,2.9788,2.979,2.9817,2.9789,2.9787,2.9792,2.9789,2.9789,2.9788,2.9779,2.9803,2.9806,2.9825,2.9787,2.9863,2.9866,2.9868,2.9902,2.9908,2.9913,0,0,0,0,0,2.9775,2.9799,2.9791,2.9793,2.9804,2.9818,2.982,2.9809,2.9794,2.9806,2.9803,2.9788,2.9822,2.9805,2.9809,2.9829,2.9862,2.9865,2.9868,2.9899,2.9906,2.9913,0,0,0,0,0,0,2.9803,2.9798,2.9789,2.9813,2.9817,2.9814,2.9828,2.9817,2.9824,2.9821,2.9808,2.9809,2.9834,2.9833,2.9815,2.9862,2.9839,2.9843,2.9862,2.9869,2.9874,2.9874,2.9788,0,0,0,0,0,2.9812,2.9824,2.9819,2.9842,2.9844,2.9836,2.9842,2.9834,2.9837,2.9838,2.9836,2.9841,2.9853,2.986,2.987,2.9901,2.9903,2.9917,2.9923,2.9928,2.9932,2.9952,2.9959,2.988,2.988,2.988,0,0,2.9831,2.983,2.9838,2.9847,2.9849,2.9863,2.9837,2.9852,2.9863,2.984,2.9862,2.9861,2.9865,2.9893,2.9905,2.9894,2.9954,2.9932,2.9935,2.9937,2.9956,2.9963,2.997,2.9882,2.9882,2.9882,0,0,2.9873,2.9873,2.9892,2.9895,2.9898,2.9894,2.9899,2.9898,2.9897,2.9919,2.9903,2.9917,2.9936,2.9941,2.9946,2.9994,2.9982,2.9998,3.0027,3.0047,3.0053,3.0058,3.0078,3.0085,3.0001,3.0001,3.0001,0,2.9896,2.9916,2.9904,2.9921,2.9927,2.9908,2.993,2.9933,2.9939,2.9945,2.9931,2.9959,2.9959,2.999,3.0002,3.0006,3.0013,2.9997,3.0053,3.0058,3.0063,3.0082,3.0089,3.0004,3.0003,3.0003,3.0003,0,2.9946,2.996,2.9976,2.9984,2.9991,3.001,3.0003,3.0013,3.0005,3.0002,3.0026,3.0028,3.004,3.0046,3.0037,3.0076,3.007,3.0055,3.0031,3.0073,3.0091,3.0097,3.0007,3.0006,3.0005,3.0005,0,0,3.0004,3.0007,3.0014,3.0018,3.0022,3.0034,3.0053,3.0065,3.0075,3.0081,3.0099,3.0118,3.0105,3.0111,3.0104,3.0121,3.0163,3.0104,3.0104,3.0117,3.0209,3.0221,3.0229,3.0155,3.0156,3.0157,3.021,0,3.0047,3.008,3.0072,3.0105,3.012,3.0104,3.0122,3.0127,3.0126,3.0139,3.0138,3.0153,3.0134,3.0138,3.0154,3.0154,3.0181,3.015,3.0173,3.0174,3.0174,3.0238,3.025,3.03,3.0216,3.0217,3.0218,0,3.01,3.011,3.0145,3.015,3.0156,3.0172,3.0184,3.0196,3.0203,3.0202,3.021,3.02,3.0223,3.0199,3.0231,3.021,3.0219,3.0221,3.0223,3.0225,3.0199,3.0244,3.0315,3.0323,3.0228,3.0227,3.0227,0,3.0143,3.0164,3.0189,3.0193,3.0198,3.0211,3.0214,3.0219,3.0228,3.024,3.0246,3.0259,3.0267,3.0279,3.0274,3.0257,3.0308,3.0284,3.031,3.031,3.0321,3.0321,3.0396,3.0325,3.0325,3.0325,3.0324,0,3.0192,3.0215,3.0208,3.0223,3.025,3.0241,3.0268,3.0269,3.0275,3.0292,3.0279,3.0295,3.0287,3.0304,3.0301,3.033,3.0333,3.0334,3.0333,3.0335,3.0336,3.0342,3.0339,3.0327,3.0326,3.0326,3.0325,0,3.0243,3.0239,3.0266,3.027,3.0271,3.0291,3.0295,3.031,3.0309,3.0331,3.0336,3.0335,3.0354,3.0351,3.0371,3.037,3.0406,3.04,3.0404,3.0403,3.043,3.0429,3.0513,3.0525,3.0445,3.0446,3.0446,0,3.0275,3.0293,3.0299,3.031,3.0314,3.0331,3.034,3.0334,3.0345,3.0356,3.0371,3.0389,3.0404,3.0436,3.0438,3.0455,3.045,3.0479,3.0453,3.0456,3.0454,3.0453,3.0456,3.0484,3.0485,3.0486,3.0487,0,3.0334,3.0332,3.0346,3.0361,3.0373,3.0384,3.0394,3.0404,3.0398,3.0412,3.0432,3.0443,3.0466,3.0485,3.0502,3.0507,3.0497,3.0495,3.0502,3.0506,3.0508,3.051,3.042,3.0493,3.0492,3.0492,3.0492,3.0491,3.0378,3.0394,3.0402,3.0419,3.0427,3.0437,3.0453,3.0455,3.0471,3.0489,3.0485,3.0508,3.0518,3.054,3.0547,3.0567,3.0556,3.0566,3.0569,3.0572,3.0576,3.0504,3.0569,3.0569,3.0569,3.0569,3.0569,0,3.0438,3.0443,3.0459,3.0474,3.0489,3.0478,3.049,3.0503,3.0523,3.0534,3.0549,3.0574,3.0593,3.0598,3.0617,3.0632,3.0629,3.0638,3.0637,3.064,3.0583,3.0576,3.0641,3.0641,3.0641,3.0641,3.0641,3.0641,3.0471,3.0498,3.0498,3.0531,3.0536,3.0558,3.0567,3.0577,3.0586,3.0614,3.063,3.0633,3.0642,3.0663,3.0682,3.0683,3.0692,3.0703,3.0703,3.065,3.0643,3.0636,3.0629,3.0705,3.0705,3.0758,3.0758,3.0759]},{"header":{"parameterUnit":"m.s-1","parameterCategory":1,"la1":30.2991,"la2":30.254,"lo1":-89.0895,"lo2":-89.0444,"dy":0.0017,"dx":0.0017,"nx":28,"ny":28,"refTime":"2026-01-03T03:00:00:Z","depth":0,"parameterNumber":3,"parameterNumberName":"V-component_of_WINDS"},"data":[0,0,0,0,0,0,0,0,0,0,0,0,0,0,0,0,0,0,0,0,0,0,0,0,0,0,0,0,0,0,0,0,0,0,0,0,0,0,0,0,0,0,0,0,0,0,0,0,0,0,0,0,0,0,0,0,0,0,1.4104,1.4104,0,1.4105,1.4105,1.4105,1.4085,1.4085,1.4084,1.4084,1.4085,1.4085,1.4086,0,0,0,0,0,0,0,0,0,0,0,0,0,1.4086,1.4086,1.4104,1.4104,1.4104,1.4105,1.4105,1.4105,1.4085,1.4085,1.4084,1.4084,1.4085,1.4085,1.4086,0,0,0,0,0,0,0,0,0,0,0,0,0,1.4091,1.4086,1.4104,1.4094,1.4094,1.4105,1.4105,1.4105,1.4086,1.4085,1.4084,1.4083,1.4084,1.4085,1.4086,1.4107,0,0,1.4088,1.4089,0,0,0,0,0,0,0,0,1.4091,1.4092,1.4096,1.4095,1.4094,1.4094,1.4099,1.4106,1.4086,1.4089,1.4084,1.4083,1.4089,1.4089,1.4091,1.4107,1.4107,1.4088,1.4089,1.4089,1.4089,0,0,0,0,0,0,0,1.409,1.4092,1.4105,1.4096,1.4095,1.409,1.409,1.41,1.4093,1.4088,1.4087,1.4087,1.4088,1.409,1.4091,1.4107,1.4088,1.4089,1.409,1.409,1.4142,1.4142,0,0,0,0,0,0,1.4091,1.4091,1.4104,1.4105,1.409,1.4091,1.4091,1.4095,1.4093,1.4092,1.4088,1.4086,1.4089,1.409,1.4091,1.4116,1.4089,1.409,1.409,1.4141,1.4142,1.4143,0,0,0,0,0,0,1.4091,1.4093,1.4104,1.4098,1.4099,1.4092,1.4097,1.4096,1.4098,1.4093,1.4091,1.4092,1.4089,1.409,1.4103,1.4116,1.409,1.4091,1.414,1.4141,1.4142,1.4167,0,0,0,0,0,0,1.4091,1.4093,1.41,1.4098,1.4099,1.4117,1.4098,1.4096,1.4099,1.4097,1.4096,1.4095,1.4088,1.4102,1.4104,1.4117,1.4092,1.4138,1.414,1.4142,1.4165,1.4169,1.4172,0,0,0,0,0,1.409,1.4107,1.4101,1.4103,1.4109,1.4118,1.4118,1.411,1.41,1.4108,1.4105,1.4095,1.4114,1.4104,1.4106,1.4119,1.4138,1.414,1.4142,1.4163,1.4168,1.4172,0,0,0,0,0,0,1.4111,1.4106,1.41,1.4116,1.4117,1.4114,1.4124,1.4116,1.412,1.4118,1.4108,1.4108,1.4123,1.4122,1.4111,1.4139,1.4124,1.4127,1.414,1.4144,1.4148,1.4148,1.4092,0,0,0,0,0,1.4117,1.4125,1.412,1.4135,1.4136,1.413,1.4134,1.4128,1.4129,1.4129,1.4127,1.4128,1.4135,1.4139,1.4145,1.4164,1.4164,1.4174,1.4178,1.4181,1.4183,1.4195,1.42,1.4149,1.4149,1.4149,0,0,1.413,1.4129,1.4134,1.414,1.414,1.4148,1.4131,1.414,1.4147,1.413,1.4144,1.4142,1.4143,1.416,1.4167,1.416,1.4197,1.4183,1.4186,1.4187,1.4197,1.4202,1.4206,1.4151,1.415,1.415,0,0,1.4159,1.4159,1.4172,1.4173,1.4174,1.4169,1.4173,1.4171,1.417,1.4183,1.4171,1.4179,1.419,1.4191,1.4193,1.4224,1.4216,1.4226,1.4246,1.4257,1.4261,1.4265,1.4277,1.4281,1.4229,1.4229,1.4229,0,1.4176,1.4188,1.418,1.419,1.4193,1.4179,1.4193,1.4194,1.4197,1.42,1.4191,1.4205,1.4205,1.4223,1.423,1.4232,1.4236,1.4227,1.4261,1.4265,1.4268,1.428,1.4284,1.423,1.423,1.423,1.423,0,1.4209,1.4218,1.4229,1.4232,1.4236,1.4248,1.4242,1.4247,1.4241,1.4238,1.4252,1.4251,1.4257,1.4261,1.4254,1.4278,1.4273,1.4263,1.4248,1.4274,1.4285,1.4289,1.4232,1.4232,1.4231,1.4231,0,0,1.4251,1.4251,1.4255,1.4257,1.4257,1.4264,1.4276,1.4282,1.4287,1.4289,1.43,1.431,1.4301,1.4303,1.4297,1.4307,1.4333,1.4296,1.4296,1.4304,1.4361,1.4369,1.4375,1.4327,1.4328,1.4328,1.4361,0,1.428,1.4301,1.4294,1.4315,1.4323,1.4311,1.4321,1.4323,1.432,1.4328,1.4325,1.4333,1.432,1.4321,1.433,1.4328,1.4345,1.4326,1.4337,1.4338,1.4339,1.438,1.4389,1.442,1.4365,1.4366,1.4366,0,1.4317,1.4322,1.4344,1.4344,1.4347,1.4357,1.4363,1.4369,1.4371,1.4369,1.4373,1.4365,1.4377,1.4361,1.4378,1.4365,1.437,1.4369,1.437,1.4372,1.4354,1.4384,1.4429,1.4434,1.4373,1.4372,1.4372,0,1.4347,1.4359,1.4374,1.4376,1.4376,1.4383,1.4384,1.4385,1.4389,1.4394,1.4397,1.4403,1.4407,1.4412,1.4406,1.4395,1.4425,1.4408,1.4424,1.4424,1.4431,1.4431,1.4479,1.4433,1.4432,1.4432,1.4432,0,1.4381,1.4395,1.4388,1.4397,1.4413,1.4405,1.4421,1.442,1.4421,1.443,1.4419,1.4428,1.442,1.4428,1.4424,1.4439,1.4441,1.444,1.4439,1.4441,1.4442,1.4445,1.4443,1.4434,1.4433,1.4433,1.4433,0,1.4417,1.4413,1.4428,1.4428,1.4428,1.444,1.4439,1.4448,1.4445,1.4457,1.446,1.4455,1.4465,1.4459,1.4469,1.4466,1.4487,1.4482,1.4486,1.4485,1.4502,1.4501,1.4555,1.4562,1.4509,1.451,1.451,0,1.444,1.4451,1.4451,1.4457,1.4458,1.4467,1.4472,1.4465,1.447,1.4474,1.4483,1.4491,1.4498,1.4514,1.4512,1.4519,1.4515,1.4534,1.4516,1.4519,1.4517,1.4517,1.4519,1.4537,1.4538,1.4538,1.4539,0,1.4481,1.4478,1.4485,1.4492,1.4499,1.4504,1.4508,1.4513,1.4506,1.4513,1.4522,1.4528,1.4538,1.4547,1.4554,1.4554,1.4546,1.4544,1.4549,1.4552,1.4555,1.4555,1.4497,1.4543,1.4543,1.4542,1.4542,1.4542,1.4511,1.4521,1.4523,1.4532,1.4535,1.4539,1.4548,1.4547,1.4555,1.4563,1.4558,1.457,1.4573,1.4581,1.4583,1.4592,1.4585,1.4591,1.4593,1.4595,1.4597,1.4552,1.4593,1.4593,1.4593,1.4593,1.4593,0,1.4553,1.4554,1.4562,1.4569,1.4576,1.4567,1.4572,1.4579,1.459,1.4593,1.46,1.4612,1.4621,1.462,1.4628,1.4636,1.4633,1.4639,1.4638,1.4639,1.4603,1.4599,1.4642,1.4642,1.4641,1.4641,1.4641,1.4641,1.4575,1.4591,1.4589,1.4607,1.4608,1.462,1.4623,1.4628,1.4631,1.4645,1.4652,1.4651,1.4653,1.4662,1.467,1.467,1.4674,1.4682,1.468,1.4646,1.4641,1.4637,1.4633,1.4682,1.4682,1.4716,1.4716,1.4716]}]]